TimeCDT,TemperatureF,Dew PointF,Humidity,Sea Level PressureIn,VisibilityMPH,Wind Direction,Wind SpeedMPH,Gust SpeedMPH,PrecipitationIn,Events,Conditions,WindDirDegrees,DateUTC
12:53 AM,48.0,44.1,86,30.12,10.0,North,5.8,-,N/A,,Clear,350,2013-05-23 05:53:00
1:53 AM,45.0,43.0,93,30.14,10.0,NNW,5.8,-,N/A,,Clear,330,2013-05-23 06:53:00
2:53 AM,46.0,43.0,89,30.15,10.0,North,6.9,-,N/A,,Clear,350,2013-05-23 07:53:00
3:53 AM,45.0,42.1,90,30.17,10.0,North,6.9,-,N/A,,Clear,360,2013-05-23 08:53:00
4:53 AM,44.1,41.0,89,30.19,10.0,North,6.9,-,N/A,,Clear,360,2013-05-23 09:53:00
5:53 AM,42.1,39.9,92,30.22,10.0,NW,4.6,-,N/A,,Clear,310,2013-05-23 10:53:00
6:53 AM,44.1,42.1,93,30.24,10.0,NW,3.5,-,N/A,,Clear,310,2013-05-23 11:53:00
7:53 AM,48.0,44.1,86,30.25,10.0,NW,4.6,-,N/A,,Clear,310,2013-05-23 12:53:00
8:53 AM,53.1,45.0,74,30.26,10.0,NE,8.1,-,N/A,,Clear,40,2013-05-23 13:53:00
9:53 AM,57.0,46.0,67,30.28,10.0,ENE,5.8,-,N/A,,Clear,60,2013-05-23 14:53:00
10:53 AM,61.0,44.1,54,30.27,10.0,SE,11.5,-,N/A,,Clear,130,2013-05-23 15:53:00
11:53 AM,63.0,45.0,52,30.28,10.0,East,6.9,-,N/A,,Clear,100,2013-05-23 16:53:00
12:53 PM,64.0,46.9,54,30.27,10.0,East,8.1,-,N/A,,Partly Cloudy,100,2013-05-23 17:53:00
1:53 PM,66.9,46.0,47,30.25,10.0,East,9.2,-,N/A,,Mostly Cloudy,90,2013-05-23 18:53:00
2:53 PM,68.0,45.0,43,30.24,10.0,East,13.8,-,N/A,,Clear,100,2013-05-23 19:53:00
3:53 PM,68.0,44.1,42,30.24,10.0,ESE,13.8,20.7,N/A,,Clear,110,2013-05-23 20:53:00
4:53 PM,69.1,44.1,40,30.23,10.0,East,15.0,20.7,N/A,,Clear,80,2013-05-23 21:53:00
5:53 PM,68.0,42.1,39,30.23,10.0,ESE,15.0,19.6,N/A,,Clear,120,2013-05-23 22:53:00
6:53 PM,66.9,43.0,42,30.22,10.0,ESE,13.8,-,N/A,,Clear,110,2013-05-23 23:53:00
7:53 PM,64.9,44.1,47,30.21,10.0,ESE,11.5,-,N/A,,Clear,110,2013-05-24 00:53:00
8:53 PM,57.9,46.0,65,30.22,10.0,ESE,6.9,-,N/A,,Clear,110,2013-05-24 01:53:00
9:53 PM,55.0,44.1,67,30.23,10.0,East,8.1,-,N/A,,Clear,100,2013-05-24 02:53:00
10:53 PM,53.1,41.0,64,30.24,10.0,East,10.4,-,N/A,,Clear,100,2013-05-24 03:53:00
11:53 PM,51.1,39.0,63,30.24,10.0,ESE,9.2,-,N/A,,Clear,110,2013-05-24 04:53:00